Time,TemperatureF,DewpointF,PressureIn,WindDirection,WindDirectionDegrees,WindSpeedMPH,WindSpeedGustMPH,Humidity,HourlyPrecipIn,Conditions,Clouds,dailyrainin,SoftwareType,DateUTC
2013-12-25 00:02:00,36.9,36.1,30.16,NE,45,8.3,-999.0,97,-99.99,,,0.00,Acu-Link.com,2013-12-25 06:02:00,
2013-12-25 00:17:00,35.6,35.1,30.16,North,0,11.4,-999.0,98,-99.99,,,0.00,Acu-Link.com,2013-12-25 06:17:00,
2013-12-25 00:32:00,34.0,33.5,30.16,North,0,8.3,-999.0,98,-99.99,,,0.00,Acu-Link.com,2013-12-25 06:32:00,
2013-12-25 00:47:00,32.4,31.9,30.16,North,0,5.1,-999.0,98,-99.99,,,0.00,Acu-Link.com,2013-12-25 06:47:00,
2013-12-25 01:03:00,31.6,31.1,30.17,NNW,337,5.1,-999.0,98,-99.99,,,0.00,Acu-Link.com,2013-12-25 07:03:00,
2013-12-25 01:18:00,32.0,31.5,30.15,SE,135,1.1,-999.0,98,-99.99,,,0.00,Acu-Link.com,2013-12-25 07:18:00,
2013-12-25 01:33:00,31.8,31.3,30.15,North,0,8.3,-999.0,98,-99.99,,,0.00,Acu-Link.com,2013-12-25 07:33:00,
2013-12-25 01:48:00,31.8,31.3,30.17,NE,45,6.7,-999.0,98,-99.99,,,0.00,Acu-Link.com,2013-12-25 07:48:00,
2013-12-25 02:03:00,31.8,31.3,30.17,ENE,67,5.1,-999.0,98,-99.99,,,0.00,Acu-Link.com,2013-12-25 08:03:00,
2013-12-25 02:19:00,32.2,31.7,30.18,NE,45,5.8,-999.0,98,-99.99,,,0.00,Acu-Link.com,2013-12-25 08:19:00,
2013-12-25 02:34:00,32.0,31.5,30.19,ENE,67,6.3,-999.0,98,-99.99,,,0.00,Acu-Link.com,2013-12-25 08:34:00,
2013-12-25 02:49:00,31.8,31.3,30.19,NE,45,6.3,-999.0,98,-99.99,,,0.00,Acu-Link.com,2013-12-25 08:49:00,
2013-12-25 03:04:00,31.6,31.1,30.19,NE,45,8.3,-999.0,98,-99.99,,,0.00,Acu-Link.com,2013-12-25 09:04:00,
2013-12-25 03:20:00,31.5,31.0,30.20,NNE,22,5.1,-999.0,98,-99.99,,,0.00,Acu-Link.com,2013-12-25 09:20:00,
2013-12-25 03:35:00,31.3,30.8,30.20,NNE,22,2.7,-999.0,98,-99.99,,,0.00,Acu-Link.com,2013-12-25 09:35:00,
2013-12-25 03:50:00,31.5,31.0,30.21,ENE,67,8.3,-999.0,98,-99.99,,,0.00,Acu-Link.com,2013-12-25 09:50:00,
2013-12-25 04:05:00,31.3,30.8,30.21,NNE,22,7.4,-999.0,98,-99.99,,,0.00,Acu-Link.com,2013-12-25 10:05:00,
2013-12-25 04:20:00,30.9,30.4,30.21,East,90,3.8,-999.0,98,-99.99,,,0.00,Acu-Link.com,2013-12-25 10:20:00,
2013-12-25 04:36:00,30.9,30.4,30.22,NE,45,4.7,-999.0,98,-99.99,,,0.00,Acu-Link.com,2013-12-25 10:36:00,
2013-12-25 04:51:00,30.7,30.2,30.22,ENE,67,4.3,-999.0,98,-99.99,,,0.00,Acu-Link.com,2013-12-25 10:51:00,
2013-12-25 05:06:00,31.3,30.8,30.23,NW,315,5.1,-999.0,98,-99.99,,,0.00,Acu-Link.com,2013-12-25 11:06:00,
2013-12-25 05:21:00,30.6,30.1,30.24,ENE,67,4.3,-999.0,98,-99.99,,,0.00,Acu-Link.com,2013-12-25 11:21:00,
2013-12-25 05:36:00,30.0,29.5,30.24,NNW,337,0.0,-999.0,98,-99.99,,,0.00,Acu-Link.com,2013-12-25 11:36:00,
2013-12-25 05:51:00,29.8,29.3,30.23,NNW,337,3.1,-999.0,98,-99.99,,,0.00,Acu-Link.com,2013-12-25 11:51:00,
2013-12-25 06:06:00,29.5,29.0,30.25,North,0,4.3,-999.0,98,-99.99,,,0.00,Acu-Link.com,2013-12-25 12:06:00,
2013-12-25 06:21:00,29.8,29.3,30.26,ENE,67,2.2,-999.0,98,-99.99,,,0.00,Acu-Link.com,2013-12-25 12:21:00,
2013-12-25 06:36:00,30.2,29.7,30.26,North,0,8.3,-999.0,98,-99.99,,,0.00,Acu-Link.com,2013-12-25 12:36:00,
2013-12-25 06:51:00,30.2,29.7,30.27,NNE,22,3.8,-999.0,98,-99.99,,,0.00,Acu-Link.com,2013-12-25 12:51:00,
2013-12-25 07:06:00,30.0,29.5,30.28,NNE,22,5.8,-999.0,98,-99.99,,,0.00,Acu-Link.com,2013-12-25 13:06:00,
2013-12-25 07:22:00,30.0,29.5,30.29,East,90,6.3,-999.0,98,-99.99,,,0.00,Acu-Link.com,2013-12-25 13:22:00,
2013-12-25 07:37:00,30.0,29.5,30.29,NNE,22,7.4,-999.0,98,-99.99,,,0.00,Acu-Link.com,2013-12-25 13:37:00,
2013-12-25 07:52:00,30.0,29.5,30.30,ENE,67,4.7,-999.0,98,-99.99,,,0.00,Acu-Link.com,2013-12-25 13:52:00,
2013-12-25 08:07:00,30.7,30.2,30.32,North,0,8.3,-999.0,98,-99.99,,,0.00,Acu-Link.com,2013-12-25 14:07:00,
2013-12-25 08:22:00,31.5,31.0,30.32,NNW,337,6.7,-999.0,98,-99.99,,,0.00,Acu-Link.com,2013-12-25 14:22:00,
2013-12-25 08:37:00,32.4,31.9,30.32,WNW,292,7.8,-999.0,98,-99.99,,,0.00,Acu-Link.com,2013-12-25 14:37:00,
2013-12-25 08:52:00,33.3,32.8,30.33,NNE,22,9.4,-999.0,98,-99.99,,,0.00,Acu-Link.com,2013-12-25 14:52:00,
2013-12-25 09:07:00,34.5,34.0,30.34,North,0,11.0,-999.0,98,-99.99,,,0.00,Acu-Link.com,2013-12-25 15:07:00,
2013-12-25 09:22:00,35.8,35.3,30.35,NE,45,9.4,-999.0,98,-99.99,,,0.00,Acu-Link.com,2013-12-25 15:22:00,
2013-12-25 09:38:00,37.2,36.7,30.34,North,0,11.4,-999.0,98,-99.99,,,0.00,Acu-Link.com,2013-12-25 15:38:00,
2013-12-25 09:53:00,37.8,37.2,30.35,NNW,337,8.3,-999.0,98,-99.99,,,0.00,Acu-Link.com,2013-12-25 15:53:00,
2013-12-25 10:08:00,38.5,37.7,30.36,NW,315,13.0,-999.0,97,-99.99,,,0.00,Acu-Link.com,2013-12-25 16:08:00,
2013-12-25 10:23:00,39.2,38.2,30.36,NNW,337,8.3,-999.0,96,-99.99,,,0.00,Acu-Link.com,2013-12-25 16:23:00,
2013-12-25 10:38:00,39.6,38.5,30.37,NNE,22,8.9,-999.0,96,-99.99,,,0.00,Acu-Link.com,2013-12-25 16:38:00,
2013-12-25 10:54:00,39.9,38.9,30.38,NNE,22,13.4,-999.0,96,-99.99,,,0.00,Acu-Link.com,2013-12-25 16:54:00,
2013-12-25 11:09:00,41.5,39.1,30.38,NE,45,8.3,-999.0,91,-99.99,,,0.00,Acu-Link.com,2013-12-25 17:09:00,
2013-12-25 11:24:00,41.9,38.9,30.38,NE,45,8.9,-999.0,89,-99.99,,,0.00,Acu-Link.com,2013-12-25 17:24:00,
2013-12-25 11:39:00,42.8,38.6,30.38,NNE,22,14.1,-999.0,85,-99.99,,,0.00,Acu-Link.com,2013-12-25 17:39:00,
2013-12-25 11:55:00,43.0,37.2,30.37,NNE,22,13.4,-999.0,80,-99.99,,,0.00,Acu-Link.com,2013-12-25 17:55:00,
2013-12-25 12:10:00,43.9,37.8,30.37,North,0,14.5,-999.0,79,-99.99,,,0.00,Acu-Link.com,2013-12-25 18:10:00,
2013-12-25 12:25:00,43.9,38.1,30.37,NNE,22,9.8,-999.0,80,-99.99,,,0.00,Acu-Link.com,2013-12-25 18:25:00,
2013-12-25 12:40:00,44.4,38.6,30.37,NE,45,13.4,-999.0,80,-99.99,,,0.00,Acu-Link.com,2013-12-25 18:40:00,
2013-12-25 12:55:00,45.0,38.2,30.36,NNE,22,14.5,-999.0,77,-99.99,,,0.00,Acu-Link.com,2013-12-25 18:55:00,
2013-12-25 13:10:00,46.2,40.4,30.36,North,0,7.8,-999.0,80,-99.99,,,0.00,Acu-Link.com,2013-12-25 19:10:00,
2013-12-25 13:26:00,46.6,39.8,30.35,NE,45,8.3,-999.0,77,-99.99,,,0.00,Acu-Link.com,2013-12-25 19:26:00,
2013-12-25 13:41:00,47.5,40.3,30.35,North,0,7.8,-999.0,76,-99.99,,,0.00,Acu-Link.com,2013-12-25 19:41:00,
2013-12-25 13:56:00,48.0,39.8,30.34,NE,45,10.3,-999.0,73,-99.99,,,0.00,Acu-Link.com,2013-12-25 19:56:00,
2013-12-25 14:11:00,48.9,40.3,30.34,NNE,22,6.3,-999.0,72,-99.99,,,0.00,Acu-Link.com,2013-12-25 20:11:00,
2013-12-25 14:26:00,49.5,39.7,30.34,NNE,22,7.8,-999.0,69,-99.99,,,0.00,Acu-Link.com,2013-12-25 20:26:00,
2013-12-25 14:42:00,49.8,39.3,30.33,NE,45,6.7,-999.0,67,-99.99,,,0.00,Acu-Link.com,2013-12-25 20:42:00,
2013-12-25 14:57:00,50.0,39.9,30.33,NNE,22,7.8,-999.0,68,-99.99,,,0.00,Acu-Link.com,2013-12-25 20:57:00,
2013-12-25 15:12:00,49.8,39.3,30.33,North,0,8.3,-999.0,67,-99.99,,,0.00,Acu-Link.com,2013-12-25 21:12:00,
2013-12-25 15:27:00,50.0,39.1,30.33,NNW,337,13.0,-999.0,66,-99.99,,,0.00,Acu-Link.com,2013-12-25 21:27:00,
2013-12-25 15:42:00,50.4,39.4,30.34,North,0,7.4,-999.0,66,-99.99,,,0.00,Acu-Link.com,2013-12-25 21:42:00,
2013-12-25 15:58:00,50.0,39.1,30.34,NNE,22,9.4,-999.0,66,-99.99,,,0.00,Acu-Link.com,2013-12-25 21:58:00,
2013-12-25 16:13:00,49.5,39.0,30.34,NNE,22,9.4,-999.0,67,-99.99,,,0.00,Acu-Link.com,2013-12-25 22:13:00,
2013-12-25 16:28:00,49.1,38.6,30.34,NNW,337,11.4,-999.0,67,-99.99,,,0.00,Acu-Link.com,2013-12-25 22:28:00,
2013-12-25 16:43:00,48.4,39.1,30.34,NE,45,6.7,-999.0,70,-99.99,,,0.00,Acu-Link.com,2013-12-25 22:43:00,
2013-12-25 16:59:00,48.0,39.4,30.35,North,0,4.3,-999.0,72,-99.99,,,0.00,Acu-Link.com,2013-12-25 22:59:00,
2013-12-25 17:14:00,47.8,39.6,30.35,East,90,1.6,-999.0,73,-99.99,,,0.00,Acu-Link.com,2013-12-25 23:14:00,
2013-12-25 17:29:00,46.4,38.2,30.34,ENE,67,0.0,-999.0,73,-99.99,,,0.00,Acu-Link.com,2013-12-25 23:29:00,
2013-12-25 17:44:00,44.6,37.8,30.35,ENE,67,0.0,-999.0,77,-99.99,,,0.00,Acu-Link.com,2013-12-25 23:44:00,
2013-12-25 17:59:00,43.2,36.8,30.35,ENE,67,0.0,-999.0,78,-99.99,,,0.00,Acu-Link.com,2013-12-25 23:59:00,
2013-12-25 18:15:00,42.4,36.4,30.36,ENE,67,0.0,-999.0,79,-99.99,,,0.00,Acu-Link.com,2013-12-26 00:15:00,
2013-12-25 18:30:00,42.4,36.4,30.36,ENE,67,0.0,-999.0,79,-99.99,,,0.00,Acu-Link.com,2013-12-26 00:30:00,
2013-12-25 18:45:00,41.4,36.0,30.37,ENE,67,0.0,-999.0,81,-99.99,,,0.00,Acu-Link.com,2013-12-26 00:45:00,
2013-12-25 19:00:00,40.3,35.2,30.37,ENE,67,0.0,-999.0,82,-99.99,,,0.00,Acu-Link.com,2013-12-26 01:00:00,
2013-12-25 19:15:00,39.9,35.2,30.38,ENE,67,0.0,-999.0,83,-99.99,,,0.00,Acu-Link.com,2013-12-26 01:15:00,
2013-12-25 19:31:00,39.2,35.1,30.38,ENE,67,0.0,-999.0,85,-99.99,,,0.00,Acu-Link.com,2013-12-26 01:31:00,
2013-12-25 19:46:00,36.9,35.0,30.38,ENE,67,0.0,-999.0,93,-99.99,,,0.00,Acu-Link.com,2013-12-26 01:46:00,
2013-12-25 20:01:00,36.3,35.0,30.38,NW,315,0.0,-999.0,95,-99.99,,,0.00,Acu-Link.com,2013-12-26 02:01:00,
2013-12-25 20:16:00,35.1,34.3,30.38,NW,315,0.0,-999.0,97,-99.99,,,0.00,Acu-Link.com,2013-12-26 02:16:00,
2013-12-25 20:31:00,34.5,34.0,30.39,NW,315,1.6,-999.0,98,-99.99,,,0.00,Acu-Link.com,2013-12-26 02:31:00,
2013-12-25 20:47:00,33.6,33.1,30.39,NNE,22,0.0,-999.0,98,-99.99,,,0.00,Acu-Link.com,2013-12-26 02:47:00,
2013-12-25 21:02:00,32.9,32.4,30.39,NNE,22,0.0,-999.0,98,-99.99,,,0.00,Acu-Link.com,2013-12-26 03:02:00,
2013-12-25 21:17:00,33.4,32.9,30.39,North,0,0.0,-999.0,98,-99.99,,,0.00,Acu-Link.com,2013-12-26 03:17:00,
2013-12-25 21:32:00,33.1,32.6,30.40,North,0,0.0,-999.0,98,-99.99,,,0.00,Acu-Link.com,2013-12-26 03:32:00,
2013-12-25 21:47:00,33.6,33.1,30.39,North,0,0.0,-999.0,98,-99.99,,,0.00,Acu-Link.com,2013-12-26 03:47:00,
2013-12-25 22:03:00,33.4,32.9,30.39,NW,315,0.0,-999.0,98,-99.99,,,0.00,Acu-Link.com,2013-12-26 04:03:00,
2013-12-25 22:18:00,33.1,32.6,30.40,NW,315,0.0,-999.0,98,-99.99,,,0.00,Acu-Link.com,2013-12-26 04:18:00,
2013-12-25 22:33:00,32.4,31.9,30.39,NW,315,0.0,-999.0,98,-99.99,,,0.00,Acu-Link.com,2013-12-26 04:33:00,
2013-12-25 22:48:00,31.3,30.8,30.39,NNW,337,0.0,-999.0,98,-99.99,,,0.00,Acu-Link.com,2013-12-26 04:48:00,
2013-12-25 23:04:00,30.6,30.1,30.40,NNE,22,0.0,-999.0,98,-99.99,,,0.00,Acu-Link.com,2013-12-26 05:04:00,
2013-12-25 23:19:00,30.2,29.7,30.39,NNE,22,0.0,-999.0,98,-99.99,,,0.00,Acu-Link.com,2013-12-26 05:19:00,
2013-12-25 23:34:00,30.4,29.9,30.40,North,0,0.0,-999.0,98,-99.99,,,0.00,Acu-Link.com,2013-12-26 05:34:00,
2013-12-25 23:49:00,29.7,29.2,30.39,WNW,292,0.0,-999.0,98,-99.99,,,0.00,Acu-Link.com,2013-12-26 05:49:00,